Weather History for Yankton, SD

Change the Weather History Date:

Monday, December 30, 2013

  Actual Average Record
Temperature  
Mean Temperature 16 °F -  
Max Temperature 28 °F 25 °F 62 °F (2004)
Min Temperature 3 °F 7 °F -14 °F (1969)
Degree Days  
Heating Degree Days 50    
Moisture  
Dew Point 6 °F    
Average Humidity 72    
Maximum Humidity 92    
Minimum Humidity 48    
Precipitation  
Precipitation 0.00 in - - ()
Sea Level Pressure  
Sea Level Pressure 30.11 in    
Wind  
Wind Speed 10 mph (SW)    
Max Wind Speed 28 mph    
Max Gust Speed 32 mph    
Visibility 10 miles    
Events      
Averages and records for this station are not official NWS values.
T = Trace of Precipitation, MM = Missing Value Source: NWS Daily Summary

Daily Weather History Graph

Daily Weather History Graph

Search for Another Location

Airport:

Trip Planner

Search our weather history database for the weather conditions in past years. The results will help you decide how hot, cold, wet, or windy it might be!

Date:

Astronomy

Dec. 30, 2013 Rise Set
Actual Time 8:00 AM CST 5:04 PM CST
Civil Twilight 7:28 AM CST 5:36 PM CST
Nautical Twilight 6:52 AM CST 6:12 PM CST
Astronomical Twilight 6:18 AM CST 6:46 PM CST
Moon 5:50 AM CST (12/30) 3:39 PM CST (12/30)
Length of Visible Light 10h 08m
Length of Day
9h 03m
Waning Crescent, 4% of the Moon is Illuminated
Dec 30
Waning Crescent
Jan 1
New
Jan 7
First Quarter
Jan 15
Full
Jan 23
Last Quarter

Hourly Weather History & Observations

Time (CST) Temp. Windchill Dew Point Humidity Pressure Visibility Wind Dir Wind Speed Gust Speed Precip Events Conditions
12:15 AM 3.2 °F -9.1 °F -5.8 °F 66% 30.17 in 10.0 mi ESE 6.9 mph - N/A   Scattered Clouds
12:35 AM 3.2 °F -9.1 °F -5.8 °F 66% 30.17 in 10.0 mi ESE 6.9 mph - N/A   Partly Cloudy
12:55 AM 5.0 °F -6.9 °F -5.8 °F 61% 30.15 in 10.0 mi ESE 6.9 mph - N/A   Clear
1:15 AM 5.0 °F -6.9 °F -5.8 °F 61% 30.15 in 10.0 mi ESE 6.9 mph - N/A   Clear
1:35 AM 6.8 °F -6.9 °F -5.8 °F 56% 30.13 in 10.0 mi ESE 9.2 mph - N/A   Clear
1:55 AM 6.8 °F -6.9 °F -5.8 °F 56% 30.13 in 10.0 mi ESE 9.2 mph - N/A   Clear
2:15 AM 6.8 °F -6.9 °F -5.8 °F 56% 30.12 in 10.0 mi ESE 9.2 mph - N/A   Clear
2:35 AM 6.8 °F -7.8 °F -4.0 °F 61% 30.11 in 10.0 mi ESE 10.4 mph - N/A   Mostly Cloudy
2:55 AM 8.6 °F -7.7 °F -5.8 °F 52% 30.10 in 10.0 mi ESE 13.8 mph - N/A   Scattered Clouds
3:15 AM 8.6 °F -7.7 °F -5.8 °F 52% 30.09 in 10.0 mi SE 13.8 mph - N/A   Clear
3:35 AM 8.6 °F -6.3 °F -5.8 °F 52% 30.07 in 10.0 mi SE 11.5 mph - N/A   Scattered Clouds
3:55 AM 10.4 °F -5.4 °F -5.8 °F 48% 30.05 in 10.0 mi SE 13.8 mph - N/A   Mostly Cloudy
4:15 AM 10.4 °F -4.1 °F -5.8 °F 48% 30.05 in 10.0 mi SSE 11.5 mph - N/A   Partly Cloudy
4:35 AM 10.4 °F -4.1 °F -5.8 °F 48% 30.04 in 10.0 mi SSE 11.5 mph - N/A   Scattered Clouds
4:55 AM 12.2 °F -1.0 °F -2.2 °F 53% 30.04 in 10.0 mi SE 10.4 mph - N/A   Mostly Cloudy
5:15 AM 12.2 °F 0.7 °F -4.0 °F 48% 30.04 in 10.0 mi SSE 8.1 mph - N/A   Scattered Clouds
5:35 AM 12.2 °F -2.5 °F -2.2 °F 53% 30.03 in 10.0 mi SSE 12.7 mph 19.6 mph N/A   Scattered Clouds
5:55 AM 14.0 °F 0.5 °F 3.2 °F 62% 30.04 in 4.0 mi South 11.5 mph 16.1 mph N/A   Mostly Cloudy
6:15 AM 12.2 °F -2.5 °F 8.6 °F 85% 30.03 in 10.0 mi South 12.7 mph 17.3 mph N/A   Overcast
6:35 AM 12.2 °F -2.5 °F 5.0 °F 73% 30.03 in 10.0 mi South 12.7 mph - N/A   Overcast
6:55 AM 12.2 °F -0.2 °F 8.6 °F 85% 30.02 in 10.0 mi SSE 9.2 mph - N/A   Overcast
7:15 AM 12.2 °F -1.8 °F 8.6 °F 85% 30.02 in 10.0 mi SSE 11.5 mph 17.3 mph N/A   Mostly Cloudy
7:35 AM 12.2 °F -1.0 °F 6.8 °F 79% 30.02 in 10.0 mi SSE 10.4 mph - N/A   Overcast
7:55 AM 14.0 °F 0.5 °F 8.6 °F 79% 30.02 in 10.0 mi SSE 11.5 mph - N/A   Overcast
8:15 AM 14.0 °F 0.5 °F 8.6 °F 79% 30.02 in 5.0 mi South 11.5 mph - N/A   Overcast
8:35 AM 14.0 °F 0.5 °F 6.8 °F 73% 30.01 in 10.0 mi SSE 11.5 mph - N/A   Mostly Cloudy
8:55 AM 15.8 °F 3.4 °F 6.8 °F 68% 30.01 in 10.0 mi South 10.4 mph - N/A   Mostly Cloudy
9:15 AM 15.8 °F 3.4 °F 6.8 °F 68% 30.01 in 10.0 mi South 10.4 mph - N/A   Overcast
9:35 AM 17.6 °F 6.4 °F 8.6 °F 68% 30.01 in 10.0 mi South 9.2 mph - N/A   Overcast
9:55 AM 17.6 °F 5.7 °F 6.8 °F 63% 30.00 in 10.0 mi South 10.4 mph - N/A   Overcast
10:15 AM 19.4 °F 7.2 °F 8.6 °F 63% 30.00 in 10.0 mi South 11.5 mph - N/A   Overcast
10:35 AM 19.4 °F 8.6 °F 8.6 °F 63% 30.00 in 10.0 mi South 9.2 mph - N/A   Overcast
10:55 AM 21.2 °F 10.9 °F 8.6 °F 58% 30.00 in 10.0 mi South 9.2 mph - N/A   Overcast
11:15 AM 21.2 °F 12.6 °F 12.2 °F 68% 30.00 in 8.0 mi South 6.9 mph - N/A   Overcast
11:35 AM 21.2 °F 12.6 °F 14.0 °F 74% 29.99 in 3.0 mi SSW 6.9 mph - N/A   Overcast
11:55 AM 21.2 °F 11.7 °F 17.6 °F 86% 29.98 in 2.5 mi SW 8.1 mph - N/A   Overcast
12:15 PM 23.0 °F 14.7 °F 19.4 °F 86% 29.98 in 5.0 mi SW 6.9 mph - N/A   Overcast
12:35 PM 23.0 °F 18.4 °F 19.4 °F 86% 29.98 in 10.0 mi WSW 3.5 mph - N/A   Overcast
12:55 PM 26.6 °F 15.7 °F 19.4 °F 74% 29.98 in 10.0 mi WNW 12.7 mph 16.1 mph N/A   Overcast
1:15 PM 28.4 °F 17.0 °F 23.0 °F 80% 29.98 in 10.0 mi WNW 15.0 mph - N/A   Overcast
1:35 PM 28.4 °F 16.2 °F 23.0 °F 80% 29.98 in 10.0 mi WNW 17.3 mph 24.2 mph N/A   Overcast
1:55 PM 28.4 °F 14.1 °F 21.2 °F 74% 30.01 in 10.0 mi NW 24.2 mph 31.1 mph N/A   Overcast
2:15 PM 26.6 °F 11.1 °F 19.4 °F 74% 30.02 in 10.0 mi NW 26.5 mph 32.2 mph N/A   Overcast
2:35 PM 24.8 °F 8.4 °F 17.6 °F 74% 30.04 in 10.0 mi NW 27.6 mph 32.2 mph N/A   Overcast
2:55 PM 23.0 °F 8.3 °F 15.8 °F 74% 30.06 in 10.0 mi NW 19.6 mph 27.6 mph N/A   Overcast
3:15 PM 21.2 °F 4.5 °F 14.0 °F 74% 30.08 in 10.0 mi NW 24.2 mph 29.9 mph N/A   Mostly Cloudy
3:35 PM 21.2 °F 4.5 °F 10.4 °F 63% 30.09 in 10.0 mi NW 24.2 mph 32.2 mph N/A   Scattered Clouds
3:55 PM 19.4 °F 2.5 °F 12.2 °F 74% 30.12 in 10.0 mi WNW 23.0 mph 28.8 mph N/A   Partly Cloudy
4:15 PM 19.4 °F 4.5 °F 10.4 °F 68% 30.13 in 10.0 mi NW 17.3 mph - N/A   Clear
4:35 PM 17.6 °F 3.7 °F 10.4 °F 73% 30.15 in 10.0 mi NW 13.8 mph - N/A   Mostly Cloudy
4:55 PM 15.8 °F 0.3 °F 8.6 °F 73% 30.17 in 10.0 mi NW 16.1 mph 20.7 mph N/A   Mostly Cloudy
5:15 PM 15.8 °F 1.4 °F 8.6 °F 73% 30.18 in 10.0 mi NW 13.8 mph 20.7 mph N/A   Partly Cloudy
5:35 PM 12.2 °F -1.0 °F 8.6 °F 85% 30.20 in 10.0 mi NW 10.4 mph - N/A   Clear
5:55 PM 12.2 °F -3.7 °F 6.8 °F 79% 30.21 in 10.0 mi NW 15.0 mph 20.7 mph N/A   Clear
6:15 PM 12.2 °F -1.8 °F 6.8 °F 79% 30.20 in 10.0 mi NW 11.5 mph 21.9 mph N/A   Clear
6:35 PM 10.4 °F -5.4 °F 6.8 °F 85% 30.22 in 10.0 mi NW 13.8 mph - N/A   Clear
6:55 PM 10.4 °F -4.1 °F 5.0 °F 79% 30.22 in 10.0 mi NW 11.5 mph - N/A   Clear
7:15 PM 10.4 °F 0.8 °F 6.8 °F 85% 30.23 in 10.0 mi NW 5.8 mph - N/A   Clear
7:35 PM 8.6 °F -4.7 °F 6.8 °F 92% 30.23 in 10.0 mi NW 9.2 mph - N/A   Clear
7:55 PM 8.6 °F -1.3 °F 6.8 °F 92% 30.24 in 10.0 mi NW 5.8 mph - N/A   Clear
8:15 PM 8.6 °F -4.7 °F 3.2 °F 79% 30.26 in 10.0 mi NW 9.2 mph - N/A   Clear
8:35 PM 8.6 °F -3.7 °F 1.4 °F 73% 30.26 in 10.0 mi NW 8.1 mph - N/A   Clear
8:55 PM 6.8 °F -0.1 °F 5.0 °F 92% 30.25 in 10.0 mi WNW 3.5 mph - N/A   Clear
9:15 PM 6.8 °F -3.5 °F 1.4 °F 79% 30.26 in 10.0 mi West 5.8 mph - N/A   Clear
9:35 PM 6.8 °F -4.8 °F 3.2 °F 85% 30.26 in 10.0 mi WSW 6.9 mph - N/A   Clear
9:55 PM 6.8 °F - 3.2 °F 85% 30.24 in 10.0 mi Calm Calm - N/A   Clear
10:15 PM 6.8 °F -3.5 °F 5.0 °F 92% 30.25 in 10.0 mi WSW 5.8 mph - N/A   Mostly Cloudy
10:35 PM 6.8 °F -2.0 °F 3.2 °F 85% 30.25 in 10.0 mi West 4.6 mph - N/A   Overcast
10:55 PM 8.6 °F -1.3 °F 3.2 °F 79% 30.26 in 10.0 mi West 5.8 mph - N/A   Overcast
11:15 PM 8.6 °F 0.1 °F 3.2 °F 79% 30.25 in 10.0 mi West 4.6 mph - N/A   Overcast
11:35 PM 8.6 °F -1.3 °F 5.0 °F 85% 30.23 in 10.0 mi NW 5.8 mph - N/A   Overcast
11:55 PM 8.6 °F 0.1 °F 5.0 °F 85% 30.24 in 10.0 mi WNW 4.6 mph - N/A   Overcast